Time,TemperatureF,DewpointF,PressureIn,WindDirection,WindDirectionDegrees,WindSpeedMPH,WindSpeedGustMPH,Humidity,HourlyPrecipIn,Conditions,Clouds,dailyrainin,SoftwareType,DateUTC
2013-08-22 00:06:00,70.0,69.0,30.14,SW,229,0.0,-999.0,97,-99.99,,,0.00,weatherlink.com 1.10,2013-08-22 04:06:00,
2013-08-22 00:21:00,70.3,69.0,30.13,SW,229,0.0,-999.0,97,-99.99,,,0.00,weatherlink.com 1.10,2013-08-22 04:21:00,
2013-08-22 00:36:00,70.6,70.0,30.13,SW,229,0.0,-999.0,97,-99.99,,,0.00,weatherlink.com 1.10,2013-08-22 04:36:00,
2013-08-22 00:51:00,70.4,70.0,30.13,SW,229,0.0,-999.0,97,-99.99,,,0.00,weatherlink.com 1.10,2013-08-22 04:51:00,
2013-08-22 01:06:00,70.4,69.0,30.14,SW,229,0.0,-999.0,96,-99.99,,,0.00,weatherlink.com 1.10,2013-08-22 05:06:00,
2013-08-22 01:21:00,70.5,69.0,30.13,SW,229,0.0,-999.0,96,-99.99,,,0.00,weatherlink.com 1.10,2013-08-22 05:21:00,
2013-08-22 01:36:00,70.4,69.0,30.14,South,191,0.0,-999.0,96,-99.99,,,0.00,weatherlink.com 1.10,2013-08-22 05:36:00,
2013-08-22 01:51:00,70.4,69.0,30.14,WSW,243,0.0,-999.0,95,-99.99,,,0.00,weatherlink.com 1.10,2013-08-22 05:51:00,
2013-08-22 02:06:00,70.7,69.0,30.14,WSW,243,0.0,-999.0,94,-99.99,,,0.00,weatherlink.com 1.10,2013-08-22 06:06:00,
2013-08-22 02:21:00,70.6,69.0,30.14,WSW,243,0.0,-999.0,93,-99.99,,,0.00,weatherlink.com 1.10,2013-08-22 06:21:00,
2013-08-22 02:36:00,70.0,68.0,30.14,WSW,243,0.0,-999.0,94,-99.99,,,0.00,weatherlink.com 1.10,2013-08-22 06:36:00,
2013-08-22 02:51:00,69.7,68.0,30.14,SW,220,0.0,-999.0,94,-99.99,,,0.00,weatherlink.com 1.10,2013-08-22 06:51:00,
2013-08-22 03:06:00,69.0,68.0,30.13,SW,221,0.0,-999.0,95,-99.99,,,0.00,weatherlink.com 1.10,2013-08-22 07:06:00,
2013-08-22 03:21:00,69.2,68.0,30.13,SW,214,0.0,-999.0,95,-99.99,,,0.00,weatherlink.com 1.10,2013-08-22 07:21:00,
2013-08-22 03:36:00,69.5,68.0,30.13,ENE,77,0.0,-999.0,95,-99.99,,,0.00,weatherlink.com 1.10,2013-08-22 07:36:00,
2013-08-22 03:51:00,69.4,68.0,30.12,SE,133,0.0,-999.0,94,-99.99,,,0.00,weatherlink.com 1.10,2013-08-22 07:51:00,
2013-08-22 04:06:00,69.4,68.0,30.12,SE,133,0.0,-999.0,94,-99.99,,,0.00,weatherlink.com 1.10,2013-08-22 08:06:00,
2013-08-22 04:21:00,70.1,68.0,30.12,SE,133,0.0,-999.0,92,-99.99,,,0.00,weatherlink.com 1.10,2013-08-22 08:21:00,
2013-08-22 04:36:00,68.5,67.0,30.13,SE,133,0.0,-999.0,95,-99.99,,,0.00,weatherlink.com 1.10,2013-08-22 08:36:00,
2013-08-22 04:51:00,67.9,67.0,30.12,SE,133,0.0,-999.0,96,-99.99,,,0.00,weatherlink.com 1.10,2013-08-22 08:51:00,
2013-08-22 05:06:00,67.8,67.0,30.13,SE,133,0.0,-999.0,97,-99.99,,,0.00,weatherlink.com 1.10,2013-08-22 09:06:00,
2013-08-22 05:21:00,67.8,67.0,30.13,SE,133,0.0,-999.0,97,-99.99,,,0.00,weatherlink.com 1.10,2013-08-22 09:21:00,
2013-08-22 05:36:00,68.0,67.0,30.13,SE,133,0.0,-999.0,97,-99.99,,,0.00,weatherlink.com 1.10,2013-08-22 09:36:00,
2013-08-22 05:51:00,68.3,68.0,30.13,SE,133,0.0,-999.0,97,-99.99,,,0.00,weatherlink.com 1.10,2013-08-22 09:51:00,
2013-08-22 06:06:00,68.4,68.0,30.13,SE,133,0.0,-999.0,98,-99.99,,,0.00,weatherlink.com 1.10,2013-08-22 10:06:00,
2013-08-22 06:21:00,68.8,68.0,30.14,SE,133,0.0,-999.0,98,-99.99,,,0.00,weatherlink.com 1.10,2013-08-22 10:21:00,
2013-08-22 06:36:00,68.8,68.0,30.14,SE,133,0.0,-999.0,98,-99.99,,,0.00,weatherlink.com 1.10,2013-08-22 10:36:00,
2013-08-22 08:36:00,69.8,69.0,30.16,SE,133,0.0,-999.0,98,-99.99,,,0.00,weatherlink.com 1.10,2013-08-22 12:36:00,
2013-08-22 08:51:00,70.1,70.0,30.16,SSE,148,0.0,-999.0,98,-99.99,,,0.00,weatherlink.com 1.10,2013-08-22 12:51:00,
2013-08-22 09:06:00,70.2,70.0,30.16,ESE,123,0.0,-999.0,98,-99.99,,,0.00,weatherlink.com 1.10,2013-08-22 13:06:00,
2013-08-22 09:21:00,70.6,70.0,30.16,SE,129,0.0,-999.0,98,-99.99,,,0.00,weatherlink.com 1.10,2013-08-22 13:21:00,
2013-08-22 09:36:00,71.1,71.0,30.16,SE,129,0.0,-999.0,98,-99.99,,,0.00,weatherlink.com 1.10,2013-08-22 13:36:00,
2013-08-22 09:51:00,70.9,70.0,30.16,SE,129,0.0,-999.0,98,-99.99,,,0.00,weatherlink.com 1.10,2013-08-22 13:51:00,
2013-08-22 10:06:00,71.3,71.0,30.15,SE,129,0.0,-999.0,98,-99.99,,,0.06,weatherlink.com 1.10,2013-08-22 14:06:00,
2013-08-22 10:21:00,70.8,70.0,30.16,SE,129,0.0,-999.0,97,-99.99,,,0.06,weatherlink.com 1.10,2013-08-22 14:21:00,
2013-08-22 10:36:00,70.6,70.0,30.16,SE,129,0.0,-999.0,98,-99.99,,,0.06,weatherlink.com 1.10,2013-08-22 14:36:00,
2013-08-22 10:51:00,71.9,71.0,30.15,SE,129,0.0,-999.0,98,-99.99,,,0.06,weatherlink.com 1.10,2013-08-22 14:51:00,
2013-08-22 11:06:00,73.1,73.0,30.15,SE,138,0.0,-999.0,98,-99.99,,,0.06,weatherlink.com 1.10,2013-08-22 15:06:00,
2013-08-22 11:21:00,72.5,72.0,30.15,SE,138,0.0,-999.0,97,-99.99,,,0.06,weatherlink.com 1.10,2013-08-22 15:21:00,
2013-08-22 11:36:00,73.4,72.0,30.15,SSE,148,0.0,-999.0,96,-99.99,,,0.06,weatherlink.com 1.10,2013-08-22 15:36:00,
2013-08-22 11:51:00,73.5,72.0,30.15,SE,146,0.0,-999.0,94,-99.99,,,0.06,weatherlink.com 1.10,2013-08-22 15:51:00,
2013-08-22 12:06:00,73.6,72.0,30.15,SW,229,1.0,-999.0,94,-99.99,,,0.06,weatherlink.com 1.10,2013-08-22 16:06:00,
2013-08-22 12:21:00,75.1,73.0,30.14,NW,312,0.0,-999.0,93,-99.99,,,0.06,weatherlink.com 1.10,2013-08-22 16:21:00,
2013-08-22 12:36:00,76.3,73.0,30.14,West,275,0.0,-999.0,88,-99.99,,,0.06,weatherlink.com 1.10,2013-08-22 16:36:00,
2013-08-22 12:51:00,77.2,72.0,30.14,SSW,208,0.0,-999.0,84,-99.99,,,0.06,weatherlink.com 1.10,2013-08-22 16:51:00,
2013-08-22 13:06:00,78.2,74.0,30.13,East,89,0.0,-999.0,87,-99.99,,,0.07,weatherlink.com 1.10,2013-08-22 17:06:00,
2013-08-22 13:21:00,78.6,73.0,30.12,SSE,168,0.0,-999.0,84,-99.99,,,0.07,weatherlink.com 1.10,2013-08-22 17:21:00,
2013-08-22 13:36:00,79.4,73.0,30.12,West,272,3.0,-999.0,80,-99.99,,,0.07,weatherlink.com 1.10,2013-08-22 17:36:00,
2013-08-22 13:51:00,81.8,76.0,30.11,West,273,0.0,-999.0,81,-99.99,,,0.07,weatherlink.com 1.10,2013-08-22 17:51:00,
2013-08-22 14:06:00,81.0,74.0,30.10,SSW,210,0.0,-999.0,79,-99.99,,,0.07,weatherlink.com 1.10,2013-08-22 18:06:00,
2013-08-22 14:21:00,80.8,74.0,30.10,South,186,0.0,-999.0,80,-99.99,,,0.07,weatherlink.com 1.10,2013-08-22 18:21:00,
2013-08-22 14:36:00,81.8,74.0,30.10,West,263,0.0,-999.0,76,-99.99,,,0.07,weatherlink.com 1.10,2013-08-22 18:36:00,
2013-08-22 14:51:00,82.2,75.0,30.08,ESE,104,0.0,-999.0,79,-99.99,,,0.07,weatherlink.com 1.10,2013-08-22 18:51:00,
2013-08-22 15:06:00,79.5,75.0,30.09,WNW,286,0.0,-999.0,85,-99.99,,,0.07,weatherlink.com 1.10,2013-08-22 19:06:00,
2013-08-22 15:21:00,75.1,71.0,30.08,WSW,243,0.0,-999.0,86,-99.99,,,0.16,weatherlink.com 1.10,2013-08-22 19:21:00,
2013-08-22 15:36:00,72.7,70.0,30.08,WSW,249,0.0,-999.0,92,-99.99,,,0.23,weatherlink.com 1.10,2013-08-22 19:36:00,
2013-08-22 15:51:00,73.4,70.0,30.08,WSW,252,0.0,-999.0,90,-99.99,,,0.23,weatherlink.com 1.10,2013-08-22 19:51:00,
2013-08-22 16:06:00,72.5,71.0,30.07,WSW,252,0.0,-999.0,94,-99.99,,,0.23,weatherlink.com 1.10,2013-08-22 20:06:00,
2013-08-22 16:21:00,72.5,71.0,30.07,South,179,0.0,-999.0,95,-99.99,,,0.23,weatherlink.com 1.10,2013-08-22 20:21:00,
2013-08-22 16:36:00,72.0,71.0,30.07,NW,322,0.0,-999.0,96,-99.99,,,0.23,weatherlink.com 1.10,2013-08-22 20:36:00,
2013-08-22 16:51:00,72.4,72.0,30.07,North,8,0.0,-999.0,97,-99.99,,,0.23,weatherlink.com 1.10,2013-08-22 20:51:00,
2013-08-22 17:06:00,72.9,72.0,30.07,SW,224,0.0,-999.0,96,-99.99,,,0.23,weatherlink.com 1.10,2013-08-22 21:06:00,
2013-08-22 17:21:00,72.8,71.0,30.06,ENE,62,0.0,-999.0,95,-99.99,,,0.23,weatherlink.com 1.10,2013-08-22 21:21:00,
2013-08-22 17:36:00,72.7,71.0,30.06,ENE,62,0.0,-999.0,94,-99.99,,,0.23,weatherlink.com 1.10,2013-08-22 21:36:00,
2013-08-22 17:51:00,73.9,72.0,30.05,ENE,62,0.0,-999.0,94,-99.99,,,0.23,weatherlink.com 1.10,2013-08-22 21:51:00,
2013-08-22 18:06:00,74.6,71.0,30.05,ENE,62,0.0,-999.0,87,-99.99,,,0.23,weatherlink.com 1.10,2013-08-22 22:06:00,
2013-08-22 18:21:00,74.6,71.0,30.05,ENE,62,0.0,-999.0,89,-99.99,,,0.23,weatherlink.com 1.10,2013-08-22 22:21:00,
2013-08-22 18:36:00,74.5,71.0,30.05,ENE,62,0.0,-999.0,88,-99.99,,,0.23,weatherlink.com 1.10,2013-08-22 22:36:00,
2013-08-22 18:51:00,73.9,71.0,30.05,NW,322,0.0,-999.0,90,-99.99,,,0.23,weatherlink.com 1.10,2013-08-22 22:51:00,
2013-08-22 19:06:00,73.6,71.0,30.05,NW,322,0.0,-999.0,90,-99.99,,,0.23,weatherlink.com 1.10,2013-08-22 23:06:00,
2013-08-22 19:21:00,73.1,71.0,30.05,NW,322,0.0,-999.0,93,-99.99,,,0.23,weatherlink.com 1.10,2013-08-22 23:21:00,
2013-08-22 19:36:00,73.5,70.0,30.05,NW,322,0.0,-999.0,89,-99.99,,,0.23,weatherlink.com 1.10,2013-08-22 23:36:00,
2013-08-22 19:51:00,73.7,70.0,30.05,NW,322,0.0,-999.0,87,-99.99,,,0.23,weatherlink.com 1.10,2013-08-22 23:51:00,
2013-08-22 20:06:00,73.5,70.0,30.05,NW,322,0.0,-999.0,89,-99.99,,,0.23,weatherlink.com 1.10,2013-08-23 00:06:00,
2013-08-22 20:21:00,73.8,69.0,30.05,SW,235,0.0,-999.0,86,-99.99,,,0.23,weatherlink.com 1.10,2013-08-23 00:21:00,
2013-08-22 20:36:00,73.3,70.0,30.05,SW,235,0.0,-999.0,88,-99.99,,,0.23,weatherlink.com 1.10,2013-08-23 00:36:00,
2013-08-22 20:51:00,72.7,70.0,30.05,SW,235,0.0,-999.0,91,-99.99,,,0.23,weatherlink.com 1.10,2013-08-23 00:51:00,
2013-08-22 21:06:00,72.1,70.0,30.05,SW,236,0.0,-999.0,93,-99.99,,,0.23,weatherlink.com 1.10,2013-08-23 01:06:00,
2013-08-22 21:21:00,71.4,70.0,30.06,SW,234,0.0,-999.0,94,-99.99,,,0.23,weatherlink.com 1.10,2013-08-23 01:21:00,
2013-08-22 21:36:00,71.7,70.0,30.06,SW,216,0.0,-999.0,94,-99.99,,,0.23,weatherlink.com 1.10,2013-08-23 01:36:00,
2013-08-22 21:51:00,72.4,70.0,30.07,SW,216,0.0,-999.0,93,-99.99,,,0.23,weatherlink.com 1.10,2013-08-23 01:51:00,
2013-08-22 22:06:00,72.4,70.0,30.07,SW,218,0.0,-999.0,91,-99.99,,,0.23,weatherlink.com 1.10,2013-08-23 02:06:00,
2013-08-22 22:21:00,71.8,69.0,30.07,SW,215,0.0,-999.0,92,-99.99,,,0.23,weatherlink.com 1.10,2013-08-23 02:21:00,
2013-08-22 22:36:00,71.1,69.0,30.07,SW,215,0.0,-999.0,92,-99.99,,,0.23,weatherlink.com 1.10,2013-08-23 02:36:00,
2013-08-22 22:51:00,70.7,69.0,30.07,SW,230,0.0,-999.0,93,-99.99,,,0.23,weatherlink.com 1.10,2013-08-23 02:51:00,
2013-08-22 23:06:00,70.9,69.0,30.07,SSW,210,0.0,-999.0,93,-99.99,,,0.23,weatherlink.com 1.10,2013-08-23 03:06:00,
2013-08-22 23:21:00,71.1,68.0,30.07,SSW,199,0.0,-999.0,91,-99.99,,,0.23,weatherlink.com 1.10,2013-08-23 03:21:00,
2013-08-22 23:36:00,71.9,69.0,30.06,SSW,199,0.0,-999.0,90,-99.99,,,0.23,weatherlink.com 1.10,2013-08-23 03:36:00,
2013-08-22 23:51:00,70.4,68.0,30.06,SW,232,0.0,-999.0,92,-99.99,,,0.23,weatherlink.com 1.10,2013-08-23 03:51:00,